This is the latest recevied weather packets stored in our database for station/object K7D3. If no packets are shown the sender has not sent any weather packets the latest 10 day(s).
| Time | Temp. | Humidity | Pressure | Rain* | Wind** | Luminosity | Snow |
|---|---|---|---|---|---|---|---|
| 1777388754 | 9.44° C | 86% | - | 0 mm | 5.81 m/s, 314° | - | - |
| 1777388275 | 10° C | 85% | - | 0 mm | 6.26 m/s, 321° | - | - |
| 1777387796 | 10° C | 83% | - | 0 mm | 5.36 m/s, 316° | - | - |
| 1777387314 | 10.56° C | 82% | - | 0 mm | 5.36 m/s, 356° | - | - |
| 1777386835 | 10.56° C | 82% | - | 0 mm | 6.26 m/s, 293° | - | - |
| 1777386356 | 11.11° C | 82% | - | 0 mm | 4.47 m/s, 287° | - | - |
| 1777385873 | 10.56° C | 82% | - | 0 mm | 5.36 m/s, 316° | - | - |
| 1777385395 | 10.56° C | 83% | - | 0 mm | 4.02 m/s, 297° | - | - |
| 1777384915 | 11.11° C | 83% | - | 0 mm | 4.47 m/s, 325° | - | - |
| 1777384433 | 11.11° C | 84% | - | 0 mm | 4.47 m/s, 335° | - | - |
| 1777383954 | 10.56° C | 84% | - | 0 mm | 5.36 m/s, 350° | - | - |
| 1777383476 | 11.11° C | 86% | - | 0 mm | 4.02 m/s, 287° | - | - |
| 1777382993 | 10.56° C | 88% | - | 0 mm | 3.58 m/s, 329° | - | - |
| 1777382514 | 10.56° C | 87% | - | 0 mm | 6.26 m/s, 350° | - | - |
| 1777382036 | 10.56° C | 89% | - | 0 mm | 3.13 m/s, 302° | - | - |
| 1777381550 | 10.56° C | 91% | - | 0 mm | 2.68 m/s, 293° | - | - |
| 1777381071 | 10.56° C | 91% | - | 0 mm | 4.47 m/s, 332° | - | - |
| 1777380593 | 11.11° C | 91% | - | 0 mm | 3.13 m/s, 316° | - | - |
| 1777380110 | 11.11° C | 91% | - | 0 mm | 5.36 m/s, 293° | - | - |
| 1777379631 | 11.11° C | 91% | - | 0 mm | 4.02 m/s, 295° | - | - |
| 1777379152 | 11.67° C | 92% | - | 0 mm | 4.92 m/s, 318° | - | - |
| 1777378670 | 11.67° C | 91% | - | 0 mm | 4.47 m/s, 305° | - | - |
| 1777378191 | 12.22° C | 92% | - | 0 mm | 3.13 m/s, 302° | - | - |
| 1777377712 | 12.22° C | 91% | - | 0 mm | 4.92 m/s, 276° | - | - |
| 1777377229 | 12.22° C | 91% | - | 0 mm | 4.47 m/s, 318° | - | - |
* Rain latest hour (hover to see other rain measurements)
** Current wind speed in m/s (hover to see current wind gust speed)